Location: Madrid
(40.4167°N, 3.7036°W)
Time: 02:01:45
(UTC+00:00)

ISS - Pass Details

Date: 09 May 2026
Orbit: 414 x 424 km, 51.6° (Epoch: 15 May)

Event Time Altitude Azimuth Distance (km) Brightness Sun altitude
Rises 22:51:23 0° 290° (WNW) 2,350 0.6 -29.1°
Reaches altitude 10° 22:54:20 10° 319° (NW) 1,490 -0.2 -29.3°
Maximum altitude 22:56:05 14° 351° (N) 1,296 -0.5 -29.4°
Enters shadow 22:57:24 11° 15° (NNE) 1,409 -0.5 -29.5°
